OneWeb SL0468

operational
NORAD ID: 51652 Int'l Des: 2022-012 Owner: ONEWEBN Country: UK Constellation: oneweb
LEOCIRCULARPOLARONEWEB_TYPE

OneWeb SL0468について

説明を読み込み中...

リアルタイム位置

3D地球を読み込み中...

次回通過

高度履歴

Altitude vs Time

uPlot chart will show altitude changes over time

軌道要素

1 51652U 22012AG 26061.06270632 .00000432 00000-0 12003-2 0 9994
2 51652 87.8758 57.6101 0001642 97.0962 263.0352 13.10369249195273
Epoch: Mar 2, 2026 • Age: 26 hours

現在のステータス

高度 1224.6 km
速度 7.24 km/s
衛星直下点 -0.82°S, 42.84°E
打ち上げ日 Feb 10, 2022
運用期間 4 years
タイプ internet

技術仕様

分類 Payload
質量 148.00 kg
乾燥質量 140.00 kg
総質量 148.00 kg
長さ 1.30 m
直径 1.00 m
スパン 5.00 m
形状 Trapezoid+2 pan
製造者 ONEWUS
バスタイプ ARROW
フェーズステータス In Orbit
所有者/国 ONEWEBN/UK

大規模コンステレーション

Loading constellations...